STARLINK-1316, 45415

Orbit data source: Space-Track

STARLINK-1316, 45415 is a payload satellite owned by SpaceX/Seattle (US) in LEO that was launched on Wed, 18 Mar 2020 UTC via an FALCON 9 launch vehicle from the Air Force Eastern Test Range (AFETR). Payload-class satellites include a variety of spacecraft equipped with specific instruments for various scientific and technological missions. These include communications satellites like Starlink; space stations such as the ISS; scientific satellites like the Hubble; Earth observation satellites from companies like Planet Labs, Umbra, and HawkEye 360; GPS; miniature CubeSats for education and research; and military/defense satellites.

Loading next visibility...
Identifier
45415, 2020-019BH
Orbit
LEO
Country
Flag of USUS
Related business
Manufacturer
SpaceX/Seattle
Mission
Operational Commercial Communications
Bus & Motor
STARLINK, Unknown motor
Mass
260 kg wet, ~248 kg dry
Launch date (UTC)
2020-03-18 (6 years ago)
Launch vehicle
FALCON 9
Launch site
Air Force Eastern Test Range (AFETR)
Object type
Payload
Rocket body
Debris
Shape & HBR
Box + 1 Pan, 10.1 m
Radar Cross Section
13.562 m², Large (>1 m²)

Expand to show TLE details & history
Last TLE update: 6 hours ago

TLE from 6 hours ago
0 STARLINK-1316
1 45415U 20019BH  25288.65309694 -.00000880  00000-0 -40219-4 0  9996
2 45415  53.0648  67.7099 0000674  86.2268 273.8799 15.06396846308020
Epoch: 2025-10-15T15:40Z
TLE epoch observation values (Epoch: 2025-10-15T15:40:27.575Z)
Latitude
0.00004°
Longitude
168.17095°
Altitude
548.07 km
Speed
7.589 km/s
True Right ascension
04h 30m 50s
True Declination
0° 00' 00"
Sunlit
Object was in full shadow at epoch
Visualization orbit readout
Latitude
Unknown
Longitude
Unknown
Altitude
Unknown
Speed
Unknown
Apparent Right ascension
Unknown
Apparent Declination
Unknown
Sunlit
N/A
Visualization observer readout
Local Sidereal Time
15:57:05
Azimuth
Unknown
Elevation
Unknown
Doppler factor
Unknown
Orbital elements
Apogee altitude
547.957 km
Perigee altitude
547.024 km
Semi-major axis
6,925.627 km
Eccentricity
0.00007
Inclination
53.0648°
RAAN
67.7099°
Arg. of periapsis
86.2268°
True anomaly
273.87219°
Mean anomaly
273.8799°
Eccentric anomaly
273.87605°
Mean motion
3.76578 °/min
Orbital period
95.6 mins
BSTAR
-0.000040219
Loading maneuver chart data...
Computing Atmospheric mass density...
Loading historical data...
Loading historical data...
Loading historical data...
Loading historical data...
Loading historical data...
Loading historical data...
Loading historical data...

Documentation

Showing up to 5 results
|